This demonstration page uses our WeatherBlox Daily Observations layout. Learn more.

Left ArrowRight Arrow

Hourly Observations for December 7, 2021

Temp ( °F °C ) Dew Point ( °F °C ) Humidity (%) Winds ( mph kmh ) Pressure ( in mb ) Visibility ( mi km ) Precip ( " mm )
12:53 am 00:53 Clear -4 -20 -6 -21.1 91 91 W 6 9 30.13 1020 10 16 0.00 0.00
1:53 am 01:53 Clear -5 -20.6 -8 -22.2 87 87 WSW 6 9 30.10 1019 10 16 0.00 0.00
2:53 am 02:53 Clear -5 -20.6 -8 -22.2 87 87 W 8 13 30.09 1019 10 16 0.00 0.00
3:53 am 03:53 Clear -4 -20 -7 -21.7 86 86 WNW 3 6 30.04 1017 10 16 0.00 0.00
4:28 am 04:28 Partly Cloudy -4 -20 -8 -22.2 83 83 Calm 30.17 1022 10 16 0.00 0.00
4:53 am 04:53 Mostly Clear -4 -20 -7 -21.7 86 86 W 3 6 30.02 1017 10 16 0.00 0.00
5:53 am 05:53 Clear -2 -18.9 -6 -21.1 83 83 Calm 30.01 1016 10 16 0.00 0.00
6:53 am 06:53 Clear 0 -17.8 -4 -20 83 83 ESE 6 9 30.01 1016 10 16 0.00 0.00
7:53 am 07:53 Clear 1 -17.2 -3 -19.4 83 83 E 6 9 29.98 1015 10 16 0.00 0.00
8:53 am 08:53 Sunny 2 -16.7 -1 -18.3 88 88 Calm 29.98 1015 10 16 0.00 0.00
9:53 am 09:53 Sunny 4 -15.6 1 -17.2 88 88 ESE 7 11 29.98 1015 10 16 0.00 0.00
10:53 am 10:53 Sunny 7 -13.9 4 -15.6 87 87 Calm 29.99 1016 10 16 0.00 0.00
11:53 am 11:53 Sunny 11 -11.7 7 -13.9 84 84 Calm 29.95 1014 10 16 0.00 0.00
12:53 pm 12:53 Sunny 15 -9.4 11 -11.7 84 84 WSW 12 19 29.92 1013 10 16 0.00 0.00
1:53 pm 13:53 Partly Cloudy 17 -8.3 13 -10.6 84 84 WSW 10 17 29.92 1013 10 16 0.00 0.00
2:53 pm 14:53 Mostly Cloudy 18 -7.8 13 -10.6 81 81 WSW 9 15 29.90 1013 10 16 0.00 0.00
3:53 pm 15:53 Sunny 16 -8.9 12 -11.1 84 84 W 8 13 29.91 1013 10 16 0.00 0.00
4:53 pm 16:53 Clear 14 -10 10 -12.2 84 84 WSW 9 15 29.91 1013 10 16 0.00 0.00
5:53 pm 17:53 Clear 17 -8.3 13 -10.6 84 84 WSW 6 9 29.89 1012 10 16 0.00 0.00
6:53 pm 18:53 Partly Cloudy 20 -6.7 16 -8.9 85 85 W 5 7 29.88 1012 10 16 0.00 0.00
7:53 pm 19:53 Clear 21 -6.1 17 -8.3 85 85 WSW 10 17 29.85 1011 10 16 0.00 0.00
8:53 pm 20:53 Clear 20 -6.7 16 -8.9 85 85 SW 7 11 29.82 1010 10 16 0.00 0.00
9:53 pm 21:53 Clear 11 -11.7 8 -13.3 88 88 E 6 9 29.82 1010 10 16 0.00 0.00
10:53 pm 22:53 Partly Cloudy 10 -12.2 6 -14.4 84 84 ESE 8 13 29.80 1009 10 16 0.00 0.00
11:53 pm 23:53 Mostly Cloudy 13 -10.6 9 -12.8 84 84 E 3 6 29.77 1008 10 16 0.00 0.00

Powered by AerisWeather